Location: Ferintosh
(52.7647°N, 112.9692°W)
Time: 18:21:26
(UTC+00:00)

Explorer 7 - Pass Details

Date: 25 May 2024
Orbit: 466 x 622 km, 50.3° (Epoch: 15 June)

Event Time Altitude Azimuth Distance (km) Brightness Sun altitude
Rises 07:36:09 0° 258° (WSW) 2,554 10.1 -16.2°
Reaches altitude 10° 07:38:17 10° 254° (WSW) 1,694 9.1 -16.1°
Maximum altitude 07:42:04 60° 175° (S) 593 6.6 -16.1°
Drops below altitude 10° 07:46:03 10° 95° (E) 1,785 9.4 -16.1°
Sets 07:48:21 0° 92° (E) 2,706 10.4 -16.1°
